Location: Cicognara
(44.9500°N, 10.4667°E)
Time: 13:24:33
(UTC+00:00)

CZ-2D R/B - Pass Details

Date: 20 June 2021
Orbit: 791 x 845 km, 98.7° (Epoch: 02 August)

Event Time Altitude Azimuth Distance (km) Brightness Sun altitude
Rises 23:31:49 0° 31° (NNE) 3,300 6.3 -21.6°
Reaches altitude 10° 23:35:13 10° 55° (NE) 2,365 5.0 -21.5°
Maximum altitude 23:38:09 15° 89° (E) 2,028 4.2 -21.5°
Enters shadow 23:40:23 12° 117° (ESE) 2,228 4.2 -21.5°
